TimePST,TemperatureF,Dew PointF,Humidity,Sea Level PressureIn,VisibilityMPH,Wind Direction,Wind SpeedMPH,Gust SpeedMPH,PrecipitationIn,Events,Conditions,WindDirDegrees,DateUTC
12:53 AM,39.9,32.0,73,30.10,10.0,Calm,Calm,-,N/A,,Clear,0,2013-03-03 08:53:00
1:53 AM,37.9,32.0,79,30.09,10.0,Calm,Calm,-,N/A,,Clear,0,2013-03-03 09:53:00
2:53 AM,39.0,30.9,73,30.07,10.0,Calm,Calm,-,N/A,,Clear,0,2013-03-03 10:53:00
3:53 AM,37.0,30.9,79,30.07,10.0,Calm,Calm,-,N/A,,Clear,0,2013-03-03 11:53:00
4:53 AM,41.0,34.0,76,30.04,10.0,Calm,Calm,-,N/A,,Clear,0,2013-03-03 12:53:00
5:53 AM,39.9,33.1,77,30.07,10.0,Calm,Calm,-,N/A,,Clear,0,2013-03-03 13:53:00
6:53 AM,46.0,33.1,61,30.08,10.0,ESE,4.6,-,N/A,,Clear,110,2013-03-03 14:53:00
7:53 AM,52.0,36.0,54,30.10,10.0,Calm,Calm,-,N/A,,Clear,0,2013-03-03 15:53:00
8:53 AM,62.1,35.1,37,30.09,10.0,Calm,Calm,-,N/A,,Clear,0,2013-03-03 16:53:00
9:53 AM,68.0,28.9,23,30.07,10.0,Calm,Calm,-,N/A,,Clear,0,2013-03-03 17:53:00
10:53 AM,71.1,26.1,19,30.07,10.0,Variable,6.9,-,N/A,,Clear,0,2013-03-03 18:53:00
11:53 AM,73.0,26.1,17,30.04,10.0,West,6.9,-,N/A,,Clear,270,2013-03-03 19:53:00
12:53 PM,71.1,34.0,26,30.01,10.0,WSW,5.8,-,N/A,,Overcast,250,2013-03-03 20:53:00
1:53 PM,68.0,46.0,45,30.02,10.0,West,12.7,-,N/A,,Mostly Cloudy,280,2013-03-03 21:53:00
2:53 PM,70.0,28.9,22,30.00,10.0,West,11.5,-,N/A,,Overcast,260,2013-03-03 22:53:00
3:53 PM,66.0,32.0,28,30.00,10.0,WSW,9.2,-,N/A,,Overcast,240,2013-03-03 23:53:00
4:53 PM,64.0,37.0,37,29.99,10.0,West,5.8,-,N/A,,Overcast,260,2013-03-04 00:53:00
5:53 PM,54.0,42.1,64,30.01,10.0,West,6.9,-,N/A,,Clear,260,2013-03-04 01:53:00
6:53 PM,52.0,43.0,71,30.02,10.0,Calm,Calm,-,N/A,,Mostly Cloudy,0,2013-03-04 02:53:00
7:53 PM,48.9,44.1,83,30.01,10.0,Calm,Calm,-,N/A,,Scattered Clouds,0,2013-03-04 03:53:00
8:53 PM,46.9,44.1,90,30.03,9.0,NW,3.5,-,N/A,,Partly Cloudy,310,2013-03-04 04:53:00
9:16 PM,46.4,44.6,93,30.04,8.0,NNW,4.6,-,N/A,,Scattered Clouds,340,2013-03-04 05:16:00
9:25 PM,48.2,46.4,93,30.04,5.0,NW,3.5,-,N/A,,Mostly Cloudy,310,2013-03-04 05:25:00
9:53 PM,50.0,48.9,96,30.03,5.0,NW,3.5,-,N/A,,Overcast,320,2013-03-04 05:53:00
10:11 PM,51.8,48.2,88,30.05,6.0,Calm,Calm,-,N/A,,Overcast,0,2013-03-04 06:11:00
10:53 PM,50.0,48.0,93,30.02,5.0,SE,3.5,-,N/A,,Overcast,130,2013-03-04 06:53:00
11:19 PM,48.2,44.6,87,30.04,7.0,SE,3.5,-,N/A,,Scattered Clouds,140,2013-03-04 07:19:00
11:35 PM,46.4,44.6,93,30.04,8.0,South,3.5,-,N/A,,Mostly Cloudy,170,2013-03-04 07:35:00
11:53 PM,48.0,45.0,89,30.02,8.0,Calm,Calm,-,N/A,,Overcast,0,2013-03-04 07:53:00